TimeEST,TemperatureF,Dew PointF,Humidity,Sea Level PressureIn,VisibilityMPH,Wind Direction,Wind SpeedMPH,Gust SpeedMPH,PrecipitationIn,Events,Conditions,WindDirDegrees,DateUTC
12:15 AM,-6.9,-17.7,59,30.40,10.0,NNE,8.1,-,N/A,,Clear,20,2014-01-02 05:15:00
12:35 AM,-7.2,-17.7,60,30.39,10.0,North,6.9,-,N/A,,Clear,10,2014-01-02 05:35:00
12:55 AM,-8.0,-18.8,59,30.39,10.0,NNE,9.2,-,N/A,,Clear,20,2014-01-02 05:55:00
1:15 AM,-8.1,-17.9,63,30.39,10.0,North,8.1,-,N/A,,Mostly Cloudy,10,2014-01-02 06:15:00
1:35 AM,-8.5,-17.9,64,30.39,10.0,North,9.2,-,N/A,,Overcast,360,2014-01-02 06:35:00
1:55 AM,-8.5,-17.9,64,30.39,10.0,North,9.2,-,N/A,,Overcast,350,2014-01-02 06:55:00
2:15 AM,-9.4,-18.4,65,30.39,10.0,North,9.2,-,N/A,,Mostly Cloudy,350,2014-01-02 07:15:00
2:35 AM,-9.8,-19.7,62,30.39,10.0,NNW,9.2,-,N/A,,Mostly Cloudy,340,2014-01-02 07:35:00
2:55 AM,-10.1,-20.7,60,30.39,10.0,North,6.9,-,N/A,,Overcast,360,2014-01-02 07:55:00
3:15 AM,-10.7,-22.0,57,30.38,10.0,North,10.4,-,N/A,,Mostly Cloudy,360,2014-01-02 08:15:00
3:35 AM,-11.2,-22.9,56,30.38,10.0,North,9.2,-,N/A,,Scattered Clouds,360,2014-01-02 08:35:00
3:55 AM,-11.2,-23.1,56,30.37,10.0,North,8.1,-,N/A,,Scattered Clouds,360,2014-01-02 08:55:00
4:15 AM,-11.2,-23.1,56,30.37,10.0,North,9.2,-,N/A,,Clear,350,2014-01-02 09:15:00
4:35 AM,-11.2,-23.3,55,30.37,10.0,North,9.2,-,N/A,,Clear,360,2014-01-02 09:35:00
4:55 AM,-11.2,-22.2,58,30.37,10.0,North,8.1,-,N/A,,Clear,350,2014-01-02 09:55:00
5:15 AM,-11.2,-22.0,59,30.37,10.0,North,6.9,-,N/A,,Clear,350,2014-01-02 10:15:00
5:35 AM,-11.2,-21.8,59,30.37,10.0,North,8.1,-,N/A,,Clear,350,2014-01-02 10:35:00
5:55 AM,-11.2,-21.5,60,30.37,10.0,North,5.8,-,N/A,,Mostly Cloudy,360,2014-01-02 10:55:00
6:15 AM,-11.2,-21.5,60,30.37,10.0,North,6.9,-,N/A,,Overcast,350,2014-01-02 11:15:00
6:35 AM,-11.2,-21.6,60,30.37,10.0,North,6.9,-,N/A,,Overcast,350,2014-01-02 11:35:00
6:55 AM,-11.2,-21.1,62,30.37,10.0,North,5.8,-,N/A,,Overcast,360,2014-01-02 11:55:00
7:15 AM,-11.2,-20.9,62,30.36,10.0,NNW,5.8,-,N/A,,Overcast,340,2014-01-02 12:15:00
7:35 AM,-11.2,-20.7,63,30.36,10.0,NNW,5.8,-,N/A,,Overcast,340,2014-01-02 12:35:00
7:55 AM,-10.8,-20.4,63,30.36,10.0,NNW,5.8,-,N/A,,Overcast,340,2014-01-02 12:55:00
8:15 AM,-10.7,-20.6,62,30.37,10.0,NNW,5.8,-,N/A,,Overcast,340,2014-01-02 13:15:00
8:35 AM,-10.5,-20.4,62,30.36,10.0,North,5.8,-,N/A,,Overcast,360,2014-01-02 13:35:00
8:55 AM,-9.9,-19.7,62,30.36,10.0,NNW,4.6,-,N/A,,Overcast,340,2014-01-02 13:55:00
9:15 AM,-9.6,-19.7,61,30.35,10.0,NNW,3.5,-,N/A,,Overcast,340,2014-01-02 14:15:00
9:35 AM,-9.4,-19.3,62,30.34,10.0,North,5.8,-,N/A,,Overcast,360,2014-01-02 14:35:00
9:55 AM,-8.9,-19.3,60,30.33,10.0,North,3.5,-,N/A,,Overcast,10,2014-01-02 14:55:00
10:15 AM,-8.7,-19.3,60,30.32,10.0,NNE,3.5,-,N/A,,Overcast,20,2014-01-02 15:15:00
10:35 AM,-8.3,-18.4,61,30.31,10.0,North,4.6,-,N/A,,Overcast,10,2014-01-02 15:35:00
10:55 AM,-7.6,-17.9,61,30.29,4.0,NNE,3.5,-,N/A,,Haze,20,2014-01-02 15:55:00
11:15 AM,-7.2,-17.1,62,30.28,4.0,NNE,3.5,-,N/A,,Haze,30,2014-01-02 16:15:00
11:35 AM,-6.7,-15.9,64,30.27,3.0,North,4.6,-,N/A,,Haze,360,2014-01-02 16:35:00
11:55 AM,-6.2,-15.7,63,30.26,2.5,North,6.9,-,N/A,,Haze,360,2014-01-02 16:55:00
12:15 PM,-6.0,-15.2,65,30.24,4.0,North,6.9,-,N/A,,Haze,360,2014-01-02 17:15:00
12:35 PM,-5.4,-14.8,64,30.23,4.0,North,5.8,-,N/A,,Haze,360,2014-01-02 17:35:00
12:55 PM,-4.9,-13.9,65,30.21,3.0,North,8.1,-,N/A,,Haze,360,2014-01-02 17:55:00
1:15 PM,-4.2,-13.0,66,30.20,3.0,North,9.2,-,N/A,Snow,Light Snow,360,2014-01-02 18:15:00
1:35 PM,-4.0,-12.5,67,30.19,4.0,North,8.1,-,N/A,Snow,Light Snow,360,2014-01-02 18:35:00
1:55 PM,-3.1,-11.4,68,30.18,3.0,North,9.2,-,N/A,Snow,Light Snow,360,2014-01-02 18:55:00
2:15 PM,-3.1,-11.2,68,30.17,2.0,North,10.4,-,N/A,Snow,Light Snow,360,2014-01-02 19:15:00
2:35 PM,-3.1,-11.2,68,30.17,2.0,North,10.4,-,N/A,Snow,Light Snow,350,2014-01-02 19:35:00
2:55 PM,-3.3,-11.2,69,30.16,2.0,North,10.4,-,N/A,Snow,Light Snow,350,2014-01-02 19:55:00
3:15 PM,-3.1,-11.0,69,30.15,2.0,North,10.4,-,N/A,Snow,Light Snow,350,2014-01-02 20:15:00
3:35 PM,-3.1,-10.5,71,30.14,2.5,North,8.1,-,N/A,Snow,Light Snow,360,2014-01-02 20:35:00
3:55 PM,-3.1,-10.7,70,30.13,2.0,North,10.4,-,N/A,Snow,Light Snow,360,2014-01-02 20:55:00
4:15 PM,-3.3,-11.0,69,30.12,2.0,North,13.8,17.3,N/A,Snow,Light Snow,360,2014-01-02 21:15:00
4:35 PM,-3.5,-11.2,69,30.12,3.0,NNW,10.4,-,N/A,Snow,Light Snow,340,2014-01-02 21:35:00
4:55 PM,-3.5,-10.8,71,30.12,3.0,NNW,10.4,-,N/A,Snow,Light Snow,340,2014-01-02 21:55:00
5:15 PM,-4.0,-11.4,71,30.12,3.0,NNW,10.4,-,N/A,Snow,Light Snow,340,2014-01-02 22:15:00
5:35 PM,-4.0,-11.6,70,30.12,2.5,NNW,11.5,-,N/A,Snow,Light Snow,340,2014-01-02 22:35:00
5:55 PM,-4.0,-11.4,71,30.11,4.0,North,10.4,-,N/A,Snow,Light Snow,350,2014-01-02 22:55:00
6:15 PM,-4.0,-11.4,71,30.11,3.0,North,9.2,-,N/A,Snow,Light Snow,350,2014-01-02 23:15:00
6:35 PM,-4.0,-11.2,71,30.11,3.0,North,9.2,-,N/A,Snow,Light Snow,360,2014-01-02 23:35:00
6:55 PM,-4.2,-11.9,69,30.10,2.0,North,11.5,-,N/A,Snow,Light Snow,360,2014-01-02 23:55:00
7:15 PM,-4.4,-12.1,69,30.08,2.5,North,12.7,-,N/A,Snow,Light Snow,360,2014-01-03 00:15:00
7:35 PM,-4.4,-12.3,69,30.07,3.0,North,9.2,-,N/A,Snow,Light Snow,360,2014-01-03 00:35:00
7:55 PM,-4.5,-12.3,69,30.07,2.5,North,11.5,-,N/A,Snow,Light Snow,360,2014-01-03 00:55:00
8:15 PM,-4.4,-12.1,69,30.05,2.5,North,11.5,-,N/A,Snow,Light Snow,360,2014-01-03 01:15:00
8:35 PM,-4.4,-12.3,69,30.05,4.0,North,10.4,-,N/A,Snow,Light Snow,360,2014-01-03 01:35:00
8:55 PM,-4.4,-12.1,69,30.05,3.0,North,9.2,-,N/A,Snow,Light Snow,350,2014-01-03 01:55:00
9:15 PM,-4.5,-12.1,70,30.02,3.0,North,10.4,-,N/A,Snow,Light Snow,360,2014-01-03 02:15:00
9:35 PM,-4.9,-12.3,71,30.04,2.0,North,10.4,-,N/A,Snow,Light Snow,360,2014-01-03 02:35:00
9:55 PM,-4.9,-12.8,69,30.02,2.0,North,13.8,-,N/A,Snow,Light Snow,360,2014-01-03 02:55:00
10:15 PM,-4.9,-12.8,69,30.02,2.5,North,13.8,-,N/A,Snow,Light Snow,350,2014-01-03 03:15:00
10:35 PM,-4.9,-13.0,68,30.02,2.5,North,11.5,-,N/A,Snow,Light Snow,360,2014-01-03 03:35:00
10:55 PM,-4.9,-13.0,68,30.00,2.5,North,12.7,-,N/A,Snow,Light Snow,360,2014-01-03 03:55:00
11:15 PM,-4.9,-13.0,68,29.99,2.5,North,12.7,-,N/A,Snow,Light Snow,360,2014-01-03 04:15:00
11:35 PM,-4.9,-13.0,68,29.98,2.5,North,15.0,-,N/A,Snow,Light Snow,360,2014-01-03 04:35:00
11:55 PM,-4.9,-12.3,71,29.98,2.5,North,10.4,-,N/A,Snow,Light Snow,360,2014-01-03 04:55:00